星链-31772 (STARLINK-31772 )

导读 | 豆包AI

STARLINK-31772是美国SpaceX公司星链(Starlink)项目的卫星,于2024年4月7日发射升空,属于星链近地轨道卫星组网的一部分。星链项目旨在构建覆盖全球的卫星互联网星座,为偏远地区、海洋等网络覆盖空白区域提供高速宽带接入服务,推动全球互联覆盖,该卫星后续将参与星链网络运营,服务全球用户的互联网接入需求。

基本信息
目录编号:
59430
目录名称:
STARLINK-31772
国际标识:
2024-065K
轨道中心:
EARTH
卫星名称:
星链-31772
卫星全名:
星链-31772 (STARLINK-31772 )
卫星状态:
在轨 (已飞行707 天)
发射日期:
2024-04-07 UTC
国别 :
美国 (US)
星等 :
--
轨道信息
数据来源 国际轨道数据
星历时间: 2026-03-15T06:08:53+0800
21小时前
查看轨道信息
半长轴: 6853.413km
偏心率: 0.0001409
轨道倾角: 53.161°
近地点辐角 85.874°
升交点赤经 257.151°
平近点角 274.243°
近地点: 474.31km
远地点: 476.242km
周期: 94.107分钟
每日圈数: 15.301797
详细信息
固有亮度:
5
最大亮度:
1.5
卫星平台:
Starlink v2.0 mini
覆盖范围:
全球
运营商:
太空探索技术公司
运营商所在国:
美国
制造商(研发单位):
太空探索技术公司
制造商所在国:
美国
使用方式:
暂无
卫星简介
星链(Starlink)计划是由太空探索技术公司(SpaceX)提出的一个巨型低轨卫星互联网星座项目,计划在2019年至2024年间在太空搭建由约1.2万颗卫星组成的“星链”网络,其中1584颗将部署在地球上空550千米处的近地轨道,并从2020年开始工作。该卫星仍在工作。
2D轨道图
3D轨道图
轨道高度分析图
轨道倾角分析图
轨道综合分析图
查看轨道综合分析图